Location: Stonelick Lake State Park
(39.2170°N, 84.0850°W)
Time: 21:53:20
(UTC-04:00)

Daily predictions for brighter satellites

Satellite Brightness Start Highest point End
(mag) Time Altitude Azimuth Time Altitude Azimuth Time Altitude Azimuth
USA 234 4.2 21:29:59 10° ENE 21:34:58 23° ESE 21:39:56 10° S
Cosmos 1242 Rocket 3.8 21:32:41 10° NNE 21:35:54 27° ENE 21:39:05 10° SE
SL-16 R/B 2.3 21:32:35 10° NNW 21:38:17 75° ENE 21:43:55 10° SSE
Cosmos 1908 4.1 21:36:53 10° NNE 21:40:26 33° ENE 21:43:57 10° SE
Cosmos 1867 3.6 21:37:45 10° SSW 21:43:10 75° ESE 21:48:38 10° NE
Meteor 1-24 Rocket 4.4 21:38:33 10° SSW 21:44:24 64° W 21:50:05 10° N
Cosmos 1850 Rocket 4.0 21:39:52 10° SSW 21:45:02 86° ESE 21:50:16 10° NNE
Cosmos 2221 2.7 21:42:16 10° N 21:46:37 59° E 21:50:57 10° SSE
Cosmos 1727 Rocket 4.2 21:40:43 10° S 21:47:01 82° W 21:53:24 10° N
ERS-1 Rocket 3.7 21:42:28 10° SE 21:47:05 38° ENE 21:51:43 10° N
Cosmos 1184 Rocket 3.9 21:46:06 10° SSW 21:49:22 50° W 21:52:40 10° N
Atlas Centaur 2 3.1 21:52:50 10° SW 21:55:02 15° SSW 21:57:08 10° SSE
Spot 1 4.0 21:51:06 10° SSE 21:55:11 86° ENE 21:59:27 10° NNW
Tiangong 1 2.2 21:53:51 10° WNW 21:56:30 36° N 21:59:08 10° ENE
Abrixas 3.4 22:04:50 10° SSW 22:07:03 23° SE 22:09:16 10° E
NOAA 11 4.4 22:02:06 10° SSE 22:07:17 55° ENE 22:12:36 10° N
Okean 3 Rocket 3.9 22:03:24 10° SSW 22:07:53 73° W 22:12:22 10° N
CZ-4B DEB 2.9 22:05:15 10° S 22:08:11 65° W 22:11:09 10° NNW
H-2A R/B 3.3 22:07:55 13° ESE 22:11:48 28° ENE 22:16:19 10° N
Cosmos 2016 Rocket 4.3 22:06:35 10° N 22:12:41 52° E 22:17:59 13° SSE
Cosmos 2227 4.2 22:08:23 10° SSW 22:14:05 72° ESE 22:19:47 10° NNE
Helios 1B rocket 3.4 22:10:21 10° N 22:14:23 51° WNW 22:18:23 10° SSW
Cosmos 1766 Rocket 3.5 22:12:17 10° S 22:16:33 65° E 22:20:52 10° NNE
MetOp-B 4.3 22:14:15 13° SSE 22:18:52 60° ENE 22:24:08 10° N
YAOGAN 6 3.2 22:15:53 10° S 22:19:27 55° W 22:23:05 10° NNW
Cosmos 1818 4.1 22:14:10 10° NW 22:19:28 54° WSW 22:24:23 12° S
Cosmos 1328 Rocket 4.4 22:17:37 10° NNE 22:21:34 33° ENE 22:23:58 19° SE
ERBS 3.7 22:20:39 10° NNW 22:23:40 29° NE 22:25:48 16° E
Cosmos 371 Rocket 4.0 22:19:43 10° N 22:24:15 39° ENE 22:27:15 19° SE
Cosmos 1626 4.2 22:24:03 12° E 22:24:21 12° E 22:25:56 10° ENE
Helios 1A 4.5 22:22:59 10° SSW 22:26:45 33° W 22:30:32 10° NNW
Cosmos 1726 2.3 22:25:50 10° N 22:29:27 51° E 22:31:25 24° SSE
USA 245 3.6 22:28:04 23° SE 22:29:59 47° ENE 22:34:06 10° N
Delta 2 Rocket 4.4 22:26:06 10° SW 22:31:31 46° SSE 22:36:56 10° E
Cosmos 1743 Rocket 4.0 22:29:55 20° SSE 22:32:31 42° E 22:36:36 10° NNE
H-2A R/B 4.2 22:30:44 10° E 22:32:31 13° ENE 22:34:28 10° NE
Cosmos 2263 Rocket 2.8 22:29:13 16° SSE 22:33:02 34° ESE 22:38:01 10° NE
GPS 2-05 Rocket1 3.4 22:31:52 10° SW 22:34:36 29° SSE 22:34:46 29° SSE
YAOGAN 11 4.3 22:32:08 21° SSE 22:35:03 60° ENE 22:39:33 10° N
ATLAS 5 CENTAUR R/B 4.1 22:31:29 10° WSW 22:35:31 27° NW 22:39:52 10° NNE
SPOT 5 3.0 22:35:37 21° SSE 22:38:52 66° ENE 22:43:57 10° N
Cosmos 1300 2.9 22:35:27 10° N 22:39:12 53° E 22:40:57 28° SE
Lacrosse 5 1.8 22:35:02 10° NW 22:40:07 82° NE 22:43:10 24° SE
Cosmos 2228 Rocket 3.4 22:37:47 10° N 22:42:18 53° E 22:44:39 26° SSE
Cosmos 1814 Rocket 4.1 22:39:49 10° NNW 22:45:09 67° ENE 22:48:13 25° SSE
Abrixas rocket 3.0 22:43:21 10° NW 22:46:30 45° NNE 22:47:59 25° E
SL-14 R/B 3.2 22:44:49 21° S 22:47:22 75° E 22:51:18 10° N
Nimbus 7 Rocket 4.5 22:42:27 10° NNE 22:48:25 61° ESE 22:53:11 16° S
Cosmos 2058 3.8 22:47:52 28° ESE 22:48:59 33° E 22:52:47 10° NNE
Cosmos 1486 Rocket 3.9 22:47:46 12° S 22:52:40 70° ESE 22:57:57 10° NNE
Cosmos 841 Rocket 4.0 22:47:41 10° N 22:52:45 47° ENE 22:55:14 27° SE
Cosmos 220 Rocket 4.0 22:48:43 10° SSW 22:53:08 83° WNW 22:57:32 10° NNE
Cosmos 1763 Rocket 3.5 22:48:25 10° NNW 22:53:29 61° ENE 22:55:57 29° SE
RESURS DK-1 2.5 22:49:35 10° NNW 22:53:44 68° WSW 22:55:44 29° S
Landsat 7 4.4 22:51:52 27° SE 22:53:57 43° ENE 22:58:28 10° N
EO 1 Delta rocket 3.8 22:51:25 26° SSE 22:53:59 70° ENE 22:58:36 10° N
SL-08 RB Rocket 3.7 22:53:52 27° SSE 22:56:24 89° ENE 23:01:02 10° NNW
DMSP B5D2-2 4.4 22:51:32 10° NNE 22:56:34 47° E 22:58:55 28° SSE
Cosmos 1328 3.8 22:56:11 21° S 22:58:48 81° W 23:02:51 10° N
H-2A ROCKET BODY 3.5 22:55:50 10° SSW 22:59:37 28° SSE 23:10:35 10° E
Meteor 2-2 Rocket 4.4 22:58:09 10° NNW 23:03:57 76° W 23:07:51 22° S
Cosmos 1603 4.0 23:00:11 10° NNW 23:05:44 59° WSW 23:09:00 24° S
SPOT 1/Viking Rocket 3.5 23:04:06 29° SSE 23:06:49 89° ENE 23:12:00 10° NNW
Cosmos 2123 Rocket 4.1 23:01:04 11° SSW 23:07:04 74° W 23:13:17 10° N
Terra 2.4 23:07:16 31° ESE 23:08:54 43° ENE 23:13:24 10° N
ARGOS 3.6 23:05:26 21° S 23:09:04 59° W 23:14:26 10° NNW
Cosmos 1455 3.4 23:08:53 10° NNE 23:12:13 27° ENE 23:12:26 27° E
Cosmos 332 Rocket 4.4 23:10:31 10° NNW 23:15:16 51° WSW 23:17:42 26° SSW
USA 234 3.2 23:11:52 10° NE 23:18:27 87° NW 23:24:59 10° SW
Cosmos 1943 3.1 23:14:08 10° NNW 23:19:49 88° ENE 23:22:12 37° SSE
Cosmos 2151 2.9 23:19:26 37° S 23:21:04 86° W 23:25:24 10° N
Cosmos 304 Rocket 4.3 23:18:31 10° N 23:23:09 46° ENE 23:24:23 38° ESE
Cosmos 2285 Rocket 4.3 23:20:53 10° N 23:27:08 57° ENE 23:29:42 35° SE
deb Chang Zheng 4 3.9 23:24:57 10° NNE 23:29:11 46° E 23:29:24 45° ESE
Tiangong 1 2.1 23:29:32 10° WNW 23:31:32 40° NW 23:31:32 40° NW
SME Rocket 4.4 23:32:06 24° E 23:32:46 26° ENE 23:36:34 10° N
Cosmos 1500 Rocket 4.4 23:34:24 24° SW 23:36:48 47° W 23:41:07 10° N
Cosmos 1503 Rocket 3.9 23:36:35 33° SSW 23:38:58 87° WNW 23:44:10 10° NNE
SL-19 R/B 4.1 23:33:53 10° NNE 23:39:17 72° ESE 23:41:12 42° S
CZ-2C R/B 4.4 23:38:20 10° NE 23:40:52 15° E 23:40:52 15° E
Abrixas 4.3 23:39:13 10° W 23:40:46 25° WNW 23:40:46 25° WNW
Spot 4 4.3 23:42:04 43° ESE 23:42:58 49° ENE 23:47:39 10° N
Cosmos 1666 Rocket 4.3 23:45:24 39° E 23:45:24 39° E 23:49:21 10° NNE
CARTOSAT-1 3.6 23:46:25 59° SSW 23:47:04 72° WSW 23:51:24 10° NNW
Cosmos 1703 3.9 23:48:31 44° WSW 23:49:19 53° W 23:53:15 10° N
CZ-4B R/B 3.6 23:44:40 10° NNE 23:49:52 58° E 23:50:35 53° SE
Cosmos 540 Rocket 3.4 23:44:46 10° NNW 23:49:56 74° ENE 23:50:56 56° SE
H-2A R/B 3.2 23:48:33 24° SW 23:51:00 37° W 23:56:01 10° NNW
Cosmos 968 Rocket 4.1 23:52:54 39° E 23:52:54 39° E 23:57:40 10° NE
